DW6193 Weather Reports


Display with metric or nautical units.
time (UTC)temp
F
wind
direction
speed
MPH
gust
MPH
rain 1hr
in
rain 24hr
in
rain mn
in
humidity
%
barometer
mb
20260503203039 91 149 1.0 6.0 0.00 0.00 0.00 1011.4
20260503202528 93 0 1.0 7.0 0.00 0.00 0.00 1011.4
20260503202026 92 99 1.0 7.0 0.00 0.00 0.00 1011.5
20260503201544 92 114 0.0 7.0 0.00 0.00 0.00 1011.5
20260503201028 91 126 2.0 8.0 0.00 0.00 0.00 1011.5
20260503200527 88 106 2.0 8.0 0.00 0.00 0.00 1011.6
20260503200038 88 355 1.0 9.0 0.00 0.00 0.00 1011.7
20260503195526 88 311 1.0 9.0 0.00 0.00 0.00 1011.7
20260503195026 86 120 2.0 12.0 0.00 0.00 0.00 1011.8
20260503194545 86 305 2.0 12.0 0.00 0.00 0.00 1011.9
20260503194026 85 101 4.0 15.0 0.00 0.00 0.00 1011.9
20260503193526 86 129 6.0 15.0 0.00 0.00 0.00 1011.9
20260503193047 86 0 4.0 17.0 0.00 0.00 0.00 1012.1
20260503192525 86 122 4.0 17.0 0.00 0.00 0.00 1012.1
20260503192029 85 77 8.0 17.0 0.00 0.00 0.00 1012.2
20260503191539 86 80 2.0 13.0 0.00 0.00 0.00 1012.3
20260503191026 86 106 4.0 13.0 0.00 0.00 0.00 1012.3
20260503190525 84 31 3.0 15.0 0.00 0.00 0.00 1012.4
20260503190045 85 105 4.0 15.0 0.00 0.00 0.00 1012.4
20260503185525 85 41 6.0 16.0 0.00 0.00 0.00 1012.4
20260503185029 84 49 9.0 16.0 0.00 0.00 0.00 1012.5
20260503184542 85 302 5.0 14.0 0.00 0.00 0.00 1012.5
20260503184026 85 0 2.0 15.0 0.00 0.00 0.00 1012.7
20260503183527 82 344 7.0 20.0 0.00 0.00 0.00 1012.7
20260503183052 84 110 2.0 20.0 0.00 0.00 0.00 1012.7
20260503182526 82 110 7.0 17.0 0.00 0.00 0.00 1012.7
20260503182025 81 285 11.0 16.0 0.00 0.00 0.00 1012.7
20260503181557 82 128 7.0 14.0 0.00 0.00 0.00 1012.8
20260503181026 81 137 8.0 15.0 0.00 0.00 0.00 1012.8
20260503180530 80 110 7.0 19.0 0.00 0.00 0.00 1012.9
20260503180047 80 103 10.0 19.0 0.00 0.00 0.00 1012.8
20260503175529 79 121 9.0 22.0 0.00 0.00 0.00 1012.8
20260503175031 77 80 12.0 22.0 0.00 0.00 0.00 1013.0
20260503174538 77 114 10.0 23.0 0.00 0.00 0.00 1012.9
20260503174030 76 146 12.0 23.0 0.00 0.00 0.00 1013.0
20260503173526 75 113 12.0 23.0 0.00 0.00 0.00 1013.1
20260503173045 75 108 11.0 27.0 0.00 0.00 0.00 1013.0
20260503172526 73 114 15.0 27.0 0.00 0.00 0.00 1013.1
20260503172026 73 101 11.0 27.0 0.00 0.00 0.00 1013.2
20260503171543 73 80 12.0 27.0 0.00 0.00 0.00 1013.0
20260503171025 72 105 14.0 24.0 0.00 0.00 0.00 1013.1
20260503170527 72 109 11.0 23.0 0.00 0.00 0.00 1013.1
20260503150525 60 121 23.0 29.0 0.00 0.00 0.00 1013.3
20260503131025 57 105 18.0 25.0 0.00 0.00 0.00 1013.1
20260503130529 58 113 19.0 26.0 0.00 0.00 0.00 1013.1
20260503110526 58 120 15.0 23.0 0.00 0.00 0.00 1013.3
20260503081536 61 99 9.0 16.0 0.00 0.00 0.00 1013.8
20260503081027 62 69 8.0 16.0 0.00 0.00 0.00 1013.8
20260503080524 62 112 10.0 14.0 0.00 0.00 0.00 1013.8
20260503072524 62 22 3.0 14.0 0.00 0.00 0.00 1013.8
20260503072027 62 113 6.0 12.0 0.00 0.00 0.00 1013.9
20260503071537 62 103 5.0 12.0 0.00 0.00 0.00 1013.9
20260503071027 61 103 6.0 12.0 0.00 0.00 0.00 1013.9
20260503070530 61 116 1.0 8.0 0.00 0.00 0.00 1013.9
20260503055027 63 108 10.0 17.0 0.00 0.00 0.00 1013.9
20260503054539 63 109 12.0 18.0 0.00 0.00 0.00 1013.7
20260503054027 62 109 11.0 18.0 0.00 0.00 0.00 1013.7
20260503053527 63 107 8.0 18.0 0.00 0.00 0.00 1013.5
20260503053037 63 124 15.0 18.0 0.00 0.00 0.00 1013.5
20260503052526 63 111 11.0 15.0 0.00 0.00 0.00 1013.7
20260503052028 64 71 4.0 9.0 0.00 0.00 0.00 1013.6
20260503051537 65 72 3.0 9.0 0.00 0.00 0.00 1013.7
20260503051027 65 108 5.0 9.0 0.00 0.00 0.00 1013.9
20260503050527 64 111 5.0 9.0 0.00 0.00 0.00 1014.1
20260503050038 64 105 5.0 9.0 0.00 0.00 0.00 1014.0
20260503045528 64 108 3.0 7.0 0.00 0.00 0.00 1014.1
20260503045027 64 122 2.0 8.0 0.00 0.00 0.00 1014.1
20260503044552 64 60 5.0 8.0 0.00 0.00 0.00 1014.2
20260503044027 63 113 3.0 7.0 0.00 0.00 0.00 1014.2
20260503043527 64 133 4.0 7.0 0.00 0.00 0.00 1014.0
20260503043036 64 136 1.0 8.0 0.00 0.00 0.00 1014.2
20260503042526 64 141 3.0 8.0 0.00 0.00 0.00 1014.3
20260503042025 64 129 3.0 7.0 0.00 0.00 0.00 1014.3
20260503041537 64 0 1.0 3.0 0.00 0.00 0.00 1014.2
20260503041024 63 124 1.0 5.0 0.00 0.00 0.00 1014.2
20260503040525 63 183 1.0 5.0 0.00 0.00 0.00 1014.2
20260503040050 63 223 2.0 5.0 0.00 0.00 0.00 1014.2
20260503035525 63 285 2.0 5.0 0.00 0.00 0.00 1014.1
20260503035025 64 261 3.0 5.0 0.00 0.00 0.00 1014.0
20260503034539 65 268 0.0 5.0 0.00 0.00 0.00 1014.0
20260503034028 64 285 0.0 5.0 0.00 0.00 0.00 1014.2
20260503033526 65 218 1.0 8.0 0.00 0.00 0.00 1014.1
20260503033042 65 255 1.0 9.0 0.00 0.00 0.00 1014.1
20260503032525 65 134 3.0 11.0 0.00 0.00 0.00 1014.2
20260503032025 65 234 5.0 11.0 0.00 0.00 0.00 1014.0
20260503031536 65 248 5.0 11.0 0.00 0.00 0.00 1013.9
20260503031025 65 231 5.0 15.0 0.00 0.00 0.00 1013.9
20260503030525 65 183 7.0 15.0 0.00 0.00 0.00 1013.7
20260503030040 66 261 5.0 15.0 0.00 0.00 0.00 1013.7
20260503025525 66 243 8.0 15.0 0.00 0.00 0.00 1013.8
20260503025025 66 239 6.0 17.0 0.00 0.00 0.00 1013.5
20260503024540 66 245 7.0 17.0 0.00 0.00 0.00 1013.5
20260503024025 66 275 9.0 17.0 0.00 0.00 0.00 1013.6
20260503023528 66 248 9.0 17.0 0.00 0.00 0.00 1013.2
20260503023036 66 259 7.0 18.0 0.00 0.00 0.00 1013.5
20260503022527 67 290 9.0 18.0 0.00 0.00 0.00 1013.5
20260503022028 67 274 9.0 16.0 0.00 0.00 0.00 1013.4
20260503021538 67 274 8.0 12.0 0.00 0.00 0.00 1013.2
20260503021025 67 279 7.0 12.0 0.00 0.00 0.00 1013.1
20260503020527 67 268 6.0 12.0 0.00 0.00 0.00 1013.0
20260503020036 67 265 6.0 12.0 0.00 0.00 0.00 1013.0
20260503015528 67 252 6.0 11.0 0.00 0.00 0.00 1012.8
20260503015025 67 257 6.0 10.0 0.00 0.00 0.00 1012.8
20260503014548 67 248 6.0 10.0 0.00 0.00 0.00 1012.8
20260503014025 67 241 3.0 10.0 0.00 0.00 0.00 1012.8
20260503013528 67 282 5.0 10.0 0.00 0.00 0.00 1012.7
20260503013038 67 284 5.0 10.0 0.00 0.00 0.00 1012.6
20260503012525 68 141 2.0 7.0 0.00 0.00 0.00 1012.8
20260503012026 68 283 4.0 7.0 0.00 0.00 0.00 1012.8
20260503011537 68 268 3.0 7.0 0.00 0.00 0.00 1012.8
20260503011025 68 291 3.0 7.0 0.00 0.00 0.00 1012.7
20260503010526 69 268 2.0 5.0 0.00 0.00 0.00 1012.7
20260503010037 69 286 1.0 6.0 0.00 0.00 0.00 1012.8
20260503005527 70 286 1.0 6.0 0.00 0.00 0.00 1012.8
20260503005028 70 286 3.0 6.0 0.00 0.00 0.00 1012.9
20260503004536 72 99 1.0 5.0 0.00 0.00 0.00 1012.9
20260503004030 74 285 0.0 3.0 0.00 0.00 0.00 1012.9
20260503003526 76 158 0.0 3.0 0.00 0.00 0.00 1013.0
20260503003044 74 0 0.0 3.0 0.00 0.00 0.00 1012.8
20260503002530 74 0 0.0 3.0 0.00 0.00 0.00 1012.9
20260503002029 72 239 0.0 3.0 0.00 0.00 0.00 1012.9
20260503001543 73 0 0.0 3.0 0.00 0.00 0.00 1012.8
20260503001025 72 277 0.0 2.0 0.00 0.00 0.00 1012.8
20260503000525 72 280 0.0 4.0 0.00 0.00 0.00 1012.9
20260503000040 72 0 1.0 4.0 0.00 0.00 0.00 1013.0
20260502235525 72 311 1.0 4.0 0.00 0.00 0.00 1013.1
20260502235025 74 268 1.0 4.0 0.00 0.00 0.00 1012.9
20260502234546 76 311 1.0 3.0 0.00 0.00 0.00 1012.9
20260502234027 76 268 1.0 5.0 0.00 0.00 0.00 1012.9
20260502233530 77 243 1.0 5.0 0.00 0.00 0.00 1013.0
20260502233037 80 280 0.0 5.0 0.00 0.00 0.00 1013.1
20260502232528 78 12 1.0 6.0 0.00 0.00 0.00 1013.2
20260502232026 78 278 2.0 6.0 0.00 0.00 0.00 1013.2
20260502231541 78 302 1.0 5.0 0.00 0.00 0.00 1013.3
20260502231030 78 39 1.0 8.0 0.00 0.00 0.00 1013.4
20260502230526 78 252 2.0 9.0 0.00 0.00 0.00 1013.4
20260502230046 79 297 3.0 9.0 0.00 0.00 0.00 1013.4
20260502225527 83 285 1.0 6.0 0.00 0.00 0.00 1013.6
20260502225027 81 22 2.0 6.0 0.00 0.00 0.00 1013.4
20260502224539 83 141 1.0 5.0 0.00 0.00 0.00 1013.7
20260502224026 82 286 1.0 6.0 0.00 0.00 0.00 1013.7
20260502223526 78 286 1.0 6.0 0.00 0.00 0.00 1013.8
20260502223040 81 31 1.0 4.0 0.00 0.00 0.00 1013.9
20260502222526 81 109 1.0 4.0 0.00 0.00 0.00 1014.0
20260502222028 79 51 1.0 4.0 0.00 0.00 0.00 1014.1
20260502221540 80 192 1.0 5.0 0.00 0.00 0.00 1014.2
20260502221026 77 109 1.0 5.0 0.00 0.00 0.00 1014.2
20260502220526 74 283 2.0 6.0 0.00 0.00 0.00 1014.2
20260502220113 76 39 1.0 7.0 0.00 0.00 0.00 1014.3
20260502215525 77 0 1.0 7.0 0.00 0.00 0.00 1014.5
20260502215028 76 311 3.0 7.0 0.00 0.00 0.00 1014.4
20260502214541 77 7 2.0 6.0 0.00 0.00 0.00 1014.5
20260502214026 79 22 1.0 5.0 0.00 0.00 0.00 1014.6
20260502213526 76 124 1.0 5.0 0.00 0.00 0.00 1014.6
20260502213039 73 254 1.0 5.0 0.00 0.00 0.00 1014.6
20260502212528 73 131 1.0 4.0 0.00 0.00 0.00 1014.8
20260502212027 74 268 1.0 4.0 0.00 0.00 0.00 1014.9
20260502211540 74 112 1.0 4.0 0.00 0.00 0.00 1014.9
20260502211027 74 268 1.0 5.0 0.00 0.00 0.00 1015.1
20260502210526 72 0 1.0 5.0 0.00 0.00 0.00 1015.3
20260502210041 73 286 1.0 5.0 0.00 0.00 0.00 1015.2
20260502205526 73 219 1.0 6.0 0.00 0.00 0.00 1015.2
20260502205028 72 133 1.0 6.0 0.00 0.00 0.00 1015.4
20260502204537 70 261 1.0 6.0 0.00 0.00 0.00 1015.4
20260502204027 70 231 1.0 5.0 0.00 0.00 0.00 1015.4
20260502203526 68 0 1.0 5.0 0.00 0.00 0.00 1015.5